This is the latest recevied weather packets stored in our database for station/object W0CHP-13. If no packets are shown the sender has not sent any weather packets the latest 10 day(s).
| Time | Temp. | Humidity | Pressure | Rain* | Wind** | Luminosity | Snow |
|---|---|---|---|---|---|---|---|
| 1777528217 | 5.56° C | 59% | 1015.4 hPa | 0 mm | - | 0 W/m² | - |
| 1777527615 | 5.56° C | 58% | 1015.7 hPa | 0 mm | - | 0 W/m² | - |
| 1777527017 | 5.56° C | 58% | 1015.6 hPa | 0 mm | - | 0 W/m² | - |
| 1777526416 | 6.11° C | 56% | 1015.4 hPa | 0 mm | - | 0 W/m² | - |
| 1777525818 | 6.11° C | 56% | 1015.2 hPa | 0 mm | - | 0 W/m² | - |
| 1777525216 | 6.11° C | 55% | 1015.4 hPa | 0 mm | - | 0 W/m² | - |
| 1777524618 | 6.67° C | 55% | 1015.4 hPa | 0 mm | - | 0 W/m² | - |
| 1777524017 | 6.67° C | 55% | 1015.4 hPa | 0 mm | - | 0 W/m² | - |
| 1777523415 | 6.67° C | 55% | 1015.4 hPa | 0 mm | - | 0 W/m² | - |
| 1777522817 | 7.22° C | 56% | 1015.3 hPa | 0 mm | - | 0 W/m² | - |
| 1777522215 | 7.22° C | 57% | 1015.3 hPa | 0 mm | - | 0 W/m² | - |
| 1777521618 | 7.22° C | 54% | 1015.4 hPa | 0 mm | - | 0 W/m² | - |
| 1777521016 | 7.22° C | 54% | 1015.2 hPa | 0 mm | - | 0 W/m² | - |
| 1777520418 | 7.22° C | 51% | 1015.4 hPa | 0 mm | - | 0 W/m² | - |
| 1777519816 | 7.78° C | 50% | 1015.4 hPa | 0 mm | - | 0 W/m² | - |
| 1777519219 | 7.78° C | 49% | 1015.3 hPa | 0 mm | - | 0 W/m² | - |
| 1777518617 | 7.78° C | 48% | 1015.3 hPa | 0 mm | - | 0 W/m² | - |
| 1777518015 | 8.33° C | 48% | 1015.1 hPa | 0 mm | - | 0 W/m² | - |
| 1777517417 | 8.33° C | 47% | 1015.4 hPa | 0 mm | - | 0 W/m² | - |
| 1777516815 | 8.89° C | 46% | 1015.4 hPa | 0 mm | - | 0 W/m² | - |
| 1777516218 | 8.89° C | 44% | 1015.1 hPa | 0 mm | - | 0 W/m² | - |
| 1777515616 | 9.44° C | 43% | 1015.1 hPa | 0 mm | - | 0 W/m² | - |
| 1777515018 | 9.44° C | 42% | 1014.9 hPa | 0 mm | - | 0 W/m² | - |
| 1777514416 | 10° C | 42% | 1014.8 hPa | 0 mm | - | 0 W/m² | - |
| 1777513819 | 10° C | 41% | 1014.8 hPa | 0 mm | - | 0 W/m² | - |
* Rain latest hour (hover to see other rain measurements)
** Current wind speed in m/s (hover to see current wind gust speed)